[[{"header":{"parameterUnit":"m.s-1","parameterCategory":1,"la1":30.2991,"la2":30.254,"lo1":-89.0895,"lo2":-89.0444,"dy":0.0017,"dx":0.0017,"nx":28,"ny":28,"refTime":"2023-05-26T21:00:00:Z","depth":0,"parameterNumber":2,"parameterNumberName":"U-component_of_WINDS"},"data":[0,0,0,0,0,0,0,0,0,0,0,0,0,0,0,0,0,0,0,0,0,0,0,0,0,0,0,0,0,0,0,0,0,0,0,0,0,0,0,0,0,0,0,0,0,0,0,0,0,0,0,0,0,0,0,0,0,0,-1.5472,-1.5471,0,-1.5399,-1.5399,-1.5398,-1.5404,-1.5405,-1.5406,-1.5407,-1.5334,-1.5331,-1.5328,0,0,0,0,0,0,0,0,0,0,0,0,0,-1.5617,-1.5615,-1.5472,-1.5471,-1.547,-1.54,-1.5399,-1.5398,-1.5404,-1.5405,-1.5406,-1.5408,-1.5335,-1.5331,-1.5328,0,0,0,0,0,0,0,0,0,0,0,0,0,-1.5551,-1.5614,-1.5472,-1.5465,-1.5463,-1.54,-1.5398,-1.5397,-1.5404,-1.5405,-1.5407,-1.5408,-1.5336,-1.5332,-1.5327,-1.5267,0,0,-1.5314,-1.5312,0,0,0,0,0,0,0,0,-1.5554,-1.5545,-1.5467,-1.5465,-1.5463,-1.5412,-1.5423,-1.5353,-1.5403,-1.5426,-1.5407,-1.5409,-1.5359,-1.5353,-1.5335,-1.5263,-1.526,-1.5313,-1.5311,-1.5309,-1.5307,0,0,0,0,0,0,0,-1.5559,-1.5548,-1.5443,-1.5466,-1.5464,-1.5466,-1.5458,-1.541,-1.5384,-1.5424,-1.5425,-1.5416,-1.5358,-1.534,-1.5334,-1.5259,-1.5313,-1.5309,-1.5307,-1.5305,-1.5135,-1.5133,0,0,0,0,0,0,-1.5565,-1.5552,-1.5446,-1.5441,-1.5514,-1.5462,-1.5453,-1.5427,-1.5385,-1.538,-1.5415,-1.5416,-1.5346,-1.5339,-1.5331,-1.5258,-1.5309,-1.5304,-1.5302,-1.5137,-1.5135,-1.5133,0,0,0,0,0,0,-1.5568,-1.5556,-1.5449,-1.5497,-1.5483,-1.5457,-1.5428,-1.5425,-1.5406,-1.5377,-1.5373,-1.54,-1.5347,-1.5337,-1.5283,-1.5256,-1.5302,-1.5298,-1.5139,-1.5136,-1.5134,-1.5111,0,0,0,0,0,0,-1.5572,-1.5557,-1.5533,-1.5496,-1.5481,-1.5401,-1.5427,-1.5422,-1.5398,-1.54,-1.5363,-1.5358,-1.5348,-1.5289,-1.5278,-1.525,-1.5295,-1.5141,-1.5138,-1.5134,-1.5114,-1.5108,-1.5103,0,0,0,0,0,-1.5578,-1.5529,-1.5532,-1.5519,-1.545,-1.5399,-1.539,-1.538,-1.5396,-1.5372,-1.5354,-1.5359,-1.526,-1.5284,-1.5271,-1.5242,-1.5143,-1.5139,-1.5135,-1.5117,-1.5109,-1.5103,0,0,0,0,0,0,-1.5564,-1.5524,-1.5526,-1.5465,-1.5435,-1.54,-1.537,-1.5372,-1.5337,-1.534,-1.5329,-1.532,-1.5265,-1.5248,-1.5275,-1.5181,-1.5204,-1.5197,-1.5195,-1.5187,-1.5182,-1.5187,-1.5291,0,0,0,0,0,-1.5553,-1.5515,-1.5483,-1.5431,-1.5417,-1.5396,-1.5373,-1.5367,-1.5337,-1.5324,-1.5302,-1.5272,-1.5234,-1.521,-1.5174,-1.5112,-1.5104,-1.5085,-1.508,-1.5075,-1.5069,-1.5037,-1.5028,-1.5119,-1.5119,-1.5119,0,0,-1.5532,-1.5506,-1.5482,-1.5428,-1.5404,-1.5365,-1.5385,-1.5343,-1.5314,-1.5318,-1.5265,-1.5248,-1.5214,-1.5156,-1.5129,-1.514,-1.5043,-1.507,-1.5066,-1.5063,-1.5032,-1.5023,-1.5015,-1.5116,-1.5117,-1.5117,0,0,-1.5473,-1.5448,-1.5404,-1.538,-1.5344,-1.5331,-1.532,-1.5285,-1.5273,-1.522,-1.5223,-1.5189,-1.5124,-1.51,-1.5079,-1.5012,-1.5016,-1.5001,-1.4971,-1.4939,-1.4932,-1.4925,-1.4902,-1.4894,-1.4995,-1.4995,-1.4995,0,-1.545,-1.5391,-1.538,-1.5338,-1.5314,-1.5316,-1.5271,-1.5249,-1.5203,-1.5187,-1.52,-1.5119,-1.5096,-1.5033,-1.5017,-1.5,-1.4988,-1.5005,-1.4934,-1.4927,-1.4921,-1.4899,-1.489,-1.4993,-1.4994,-1.4994,-1.4994,0,-1.5366,-1.5325,-1.5293,-1.5249,-1.5222,-1.5178,-1.5162,-1.5136,-1.5133,-1.5119,-1.5065,-1.5038,-1.4997,-1.4982,-1.4978,-1.4918,-1.4926,-1.4936,-1.4959,-1.4911,-1.489,-1.4881,-1.4991,-1.4992,-1.4992,-1.4993,0,0,-1.5296,-1.5247,-1.5235,-1.5216,-1.5177,-1.5145,-1.5102,-1.5062,-1.504,-1.5009,-1.4973,-1.4919,-1.4928,-1.4905,-1.4899,-1.4871,-1.4821,-1.4884,-1.4883,-1.4874,-1.4755,-1.4748,-1.4738,-1.4823,-1.4821,-1.482,-1.4758,0,-1.5233,-1.5156,-1.5146,-1.5078,-1.5041,-1.5042,-1.5005,-1.4978,-1.4963,-1.493,-1.4915,-1.4877,-1.4891,-1.4878,-1.485,-1.4833,-1.4797,-1.4837,-1.4791,-1.4789,-1.48,-1.4727,-1.4719,-1.4662,-1.475,-1.4748,-1.4747,0,-1.515,-1.5116,-1.5045,-1.5012,-1.4996,-1.4962,-1.4925,-1.4893,-1.4862,-1.4854,-1.4828,-1.4826,-1.4783,-1.4807,-1.4748,-1.4775,-1.4756,-1.4745,-1.4742,-1.4738,-1.4766,-1.4721,-1.4643,-1.4635,-1.4734,-1.4735,-1.4736,0,-1.5106,-1.5043,-1.4993,-1.4976,-1.4936,-1.4913,-1.4895,-1.4866,-1.4843,-1.4811,-1.4796,-1.4759,-1.4739,-1.4711,-1.4699,-1.4717,-1.4641,-1.4664,-1.4633,-1.4634,-1.4617,-1.4619,-1.4535,-1.4604,-1.4604,-1.4604,-1.4604,0,-1.5038,-1.4994,-1.4973,-1.4942,-1.4894,-1.4883,-1.4835,-1.4819,-1.4793,-1.476,-1.4759,-1.4728,-1.4714,-1.4681,-1.4671,-1.4624,-1.4615,-1.4608,-1.4606,-1.4608,-1.4609,-1.4596,-1.46,-1.4602,-1.4602,-1.4603,-1.4603,0,-1.4982,-1.4965,-1.4911,-1.4877,-1.4868,-1.4834,-1.4806,-1.4777,-1.4763,-1.4721,-1.471,-1.4689,-1.465,-1.4636,-1.4588,-1.4582,-1.4528,-1.4529,-1.4538,-1.4538,-1.4509,-1.4512,-1.4414,-1.4401,-1.4478,-1.4477,-1.4476,0,-1.4939,-1.4906,-1.4869,-1.4847,-1.4828,-1.4792,-1.4768,-1.4756,-1.4732,-1.4695,-1.467,-1.4631,-1.46,-1.4538,-1.4518,-1.4483,-1.4483,-1.4452,-1.4478,-1.4482,-1.4484,-1.4486,-1.4484,-1.4447,-1.4446,-1.4445,-1.4445,0,-1.4866,-1.486,-1.4826,-1.4789,-1.476,-1.4731,-1.4702,-1.4684,-1.4668,-1.464,-1.46,-1.4576,-1.4528,-1.449,-1.4453,-1.4436,-1.4438,-1.4437,-1.4428,-1.443,-1.4437,-1.4434,-1.4526,-1.4439,-1.444,-1.444,-1.444,-1.4441,-1.4816,-1.4787,-1.4757,-1.4719,-1.4696,-1.467,-1.464,-1.4623,-1.459,-1.4549,-1.4544,-1.4502,-1.4473,-1.4424,-1.4406,-1.4373,-1.4382,-1.4369,-1.4366,-1.4363,-1.4361,-1.4442,-1.4366,-1.4366,-1.4366,-1.4367,-1.4367,0,-1.4744,-1.4725,-1.469,-1.465,-1.462,-1.4624,-1.4593,-1.4568,-1.4531,-1.4504,-1.4473,-1.4427,-1.4391,-1.4369,-1.4333,-1.4311,-1.4311,-1.4302,-1.4303,-1.43,-1.4355,-1.4367,-1.4302,-1.4302,-1.4302,-1.4302,-1.4302,-1.4302,-1.4703,-1.4654,-1.4644,-1.4585,-1.4566,-1.4524,-1.4506,-1.4482,-1.446,-1.441,-1.4379,-1.4365,-1.4341,-1.4302,-1.427,-1.4264,-1.4251,-1.4241,-1.4237,-1.4289,-1.4296,-1.4302,-1.4313,-1.4238,-1.4238,-1.4185,-1.4184,-1.4184]},{"header":{"parameterUnit":"m.s-1","parameterCategory":1,"la1":30.2991,"la2":30.254,"lo1":-89.0895,"lo2":-89.0444,"dy":0.0017,"dx":0.0017,"nx":28,"ny":28,"refTime":"2023-05-26T21:00:00:Z","depth":0,"parameterNumber":3,"parameterNumberName":"V-component_of_WINDS"},"data":[0,0,0,0,0,0,0,0,0,0,0,0,0,0,0,0,0,0,0,0,0,0,0,0,0,0,0,0,0,0,0,0,0,0,0,0,0,0,0,0,0,0,0,0,0,0,0,0,0,0,0,0,0,0,0,0,0,0,0.1373,0.1373,0,0.1346,0.1346,0.1346,0.1235,0.1232,0.123,0.1227,0.1201,0.1202,0.1204,0,0,0,0,0,0,0,0,0,0,0,0,0,0.1329,0.133,0.1373,0.1373,0.1373,0.1346,0.1346,0.1346,0.1235,0.1232,0.1229,0.1226,0.12,0.1202,0.1204,0,0,0,0,0,0,0,0,0,0,0,0,0,0.133,0.1331,0.1373,0.1314,0.1309,0.1346,0.1346,0.1345,0.1236,0.1232,0.1228,0.1224,0.1199,0.1202,0.1204,0.1297,0,0,0.1212,0.1213,0,0,0,0,0,0,0,0,0.133,0.1331,0.1323,0.1318,0.1312,0.129,0.132,0.1329,0.1237,0.1264,0.1227,0.1223,0.1233,0.1233,0.1236,0.1296,0.1295,0.1212,0.1214,0.1215,0.1216,0,0,0,0,0,0,0,0.133,0.1332,0.1363,0.1323,0.1317,0.1289,0.1285,0.1321,0.1271,0.1261,0.1253,0.1251,0.123,0.1234,0.1235,0.1294,0.1212,0.1214,0.1216,0.1217,0.1424,0.1428,0,0,0,0,0,0,0.1338,0.1333,0.1363,0.1362,0.1312,0.1293,0.1288,0.1301,0.127,0.1261,0.1254,0.1246,0.1232,0.1232,0.1234,0.1336,0.1215,0.1217,0.1219,0.142,0.1425,0.1429,0,0,0,0,0,0,0.1338,0.1342,0.1364,0.1345,0.1346,0.1298,0.1313,0.1302,0.1307,0.1265,0.1255,0.1268,0.1229,0.123,0.1281,0.1334,0.1218,0.1221,0.1415,0.1421,0.1427,0.1545,0,0,0,0,0,0,0.1337,0.1342,0.1377,0.1347,0.1347,0.1413,0.1316,0.1305,0.1311,0.13,0.1275,0.1268,0.1226,0.1278,0.1284,0.1335,0.1223,0.141,0.1418,0.1425,0.1536,0.1554,0.157,0,0,0,0,0,0.1336,0.1413,0.138,0.1384,0.139,0.1416,0.1417,0.1367,0.1316,0.135,0.1323,0.1268,0.1328,0.1284,0.1289,0.1343,0.1407,0.1416,0.1424,0.1529,0.1551,0.157,0,0,0,0,0,0,0.1453,0.1408,0.1371,0.1441,0.1433,0.1398,0.1439,0.1393,0.14,0.1389,0.1327,0.1322,0.1381,0.1368,0.1319,0.1429,0.1358,0.1368,0.1435,0.1456,0.1472,0.1473,0.1225,0,0,0,0,0,0.1487,0.1512,0.1471,0.1537,0.1535,0.1488,0.1498,0.146,0.145,0.1446,0.1422,0.1415,0.1431,0.1443,0.1456,0.1535,0.1525,0.1574,0.1591,0.1605,0.1614,0.165,0.1669,0.1458,0.1458,0.1458,0,0,0.1557,0.1536,0.1555,0.156,0.1549,0.1575,0.1486,0.1519,0.1537,0.1451,0.1496,0.1479,0.1466,0.153,0.1557,0.152,0.167,0.1616,0.1628,0.1629,0.1661,0.1681,0.1699,0.1464,0.1463,0.1462,0,0,0.1697,0.1686,0.1736,0.1727,0.1712,0.168,0.1693,0.1664,0.1648,0.1693,0.1628,0.1649,0.168,0.1672,0.1672,0.1808,0.1756,0.1814,0.1901,0.1937,0.1953,0.1968,0.2012,0.2029,0.1824,0.1824,0.1824,0,0.1787,0.1823,0.1769,0.1804,0.1807,0.1729,0.1779,0.1774,0.1764,0.1767,0.1727,0.1761,0.1747,0.1806,0.1839,0.1843,0.1853,0.1815,0.1956,0.1969,0.1982,0.2023,0.2041,0.1831,0.183,0.1829,0.1829,0,0.1932,0.1958,0.2002,0.1992,0.2,0.2043,0.1994,0.2009,0.197,0.1942,0.1987,0.1967,0.1973,0.1985,0.1949,0.2038,0.2015,0.1967,0.1893,0.201,0.2047,0.2063,0.184,0.1838,0.1836,0.1834,0,0,0.2145,0.2103,0.2119,0.2112,0.2089,0.2108,0.2147,0.2152,0.2164,0.216,0.2189,0.2216,0.2169,0.217,0.2131,0.2164,0.2267,0.211,0.2108,0.2136,0.236,0.2394,0.2414,0.2234,0.2237,0.2239,0.2359,0,0.2275,0.2338,0.2289,0.236,0.2381,0.2308,0.2341,0.233,0.2305,0.2319,0.2292,0.231,0.2249,0.2248,0.2277,0.2249,0.231,0.224,0.2258,0.2259,0.226,0.2434,0.2471,0.2585,0.2374,0.2377,0.2379,0,0.2436,0.2436,0.2509,0.2477,0.2485,0.2516,0.2514,0.253,0.2515,0.2495,0.2494,0.2446,0.2481,0.2411,0.2456,0.2409,0.2414,0.2401,0.2404,0.2401,0.2324,0.2432,0.2621,0.2637,0.2402,0.24,0.2399,0,0.2578,0.2598,0.2642,0.264,0.2606,0.2628,0.2615,0.2597,0.2602,0.2601,0.2603,0.2608,0.2609,0.2613,0.2567,0.2521,0.2616,0.2544,0.2598,0.2599,0.2618,0.2617,0.2807,0.2629,0.2628,0.2628,0.2628,0,0.2727,0.2773,0.2705,0.2733,0.2782,0.2725,0.2776,0.2755,0.2739,0.276,0.2698,0.2719,0.2659,0.2673,0.2638,0.2678,0.2681,0.2663,0.2652,0.2666,0.2668,0.2666,0.2656,0.2633,0.2632,0.2631,0.263,0,0.2893,0.285,0.2893,0.2857,0.2848,0.2886,0.2854,0.2877,0.2848,0.2875,0.2878,0.2832,0.2846,0.2801,0.2808,0.2784,0.2842,0.2821,0.2846,0.2838,0.2893,0.2887,0.3085,0.3106,0.2919,0.292,0.2922,0,0.2988,0.3022,0.2988,0.2997,0.2987,0.3003,0.3007,0.2953,0.2959,0.2944,0.2968,0.2977,0.298,0.3005,0.2971,0.2976,0.2951,0.302,0.2951,0.2963,0.2947,0.2944,0.2945,0.3034,0.3036,0.3038,0.3039,0,0.3161,0.3138,0.3145,0.3145,0.3151,0.3149,0.3143,0.3154,0.3095,0.3106,0.3118,0.3121,0.3127,0.3134,0.3131,0.3117,0.3068,0.3062,0.3073,0.3086,0.3098,0.3088,0.2881,0.3057,0.3055,0.3054,0.3053,0.3052,0.3292,0.3317,0.3296,0.3306,0.3295,0.3289,0.3308,0.328,0.3289,0.3288,0.3257,0.3275,0.3257,0.3247,0.3238,0.325,0.3218,0.3236,0.324,0.3244,0.3252,0.3099,0.325,0.3249,0.3249,0.3248,0.3248,0,0.3458,0.344,0.345,0.3441,0.3449,0.3402,0.3392,0.3401,0.3417,0.3405,0.3408,0.3421,0.3428,0.3395,0.3397,0.3413,0.339,0.3415,0.3411,0.3408,0.3283,0.327,0.3433,0.3433,0.3433,0.3433,0.3433,0.3433,0.3544,0.3582,0.3556,0.3587,0.3569,0.3585,0.3583,0.3577,0.3566,0.3583,0.3587,0.3566,0.3544,0.3544,0.3547,0.3537,0.3539,0.3571,0.3553,0.3435,0.3417,0.34,0.3388,0.3573,0.3573,0.3676,0.3677,0.3678]}]]